Regional Weather Roundup
Issued by NWS State College, PA

Home | Current Version | Previous Version | Text Only | Print | Product List | Glossary On
Versions: 1 2 3 4 5 6 7 8 9 10 11 12 13 14 15 16 17 18 19 20 21 22 23 24 25 26 27 28 29 30 31 32 33 34 35 36 37 38 39 40 41 42 43 44 45 46 47 48 49 50
000
ASUS41 KCTP 231110
RWRCTP

REGIONAL WEATHER ROUNDUP
NATIONAL WEATHER SERVICE STATE COLLEGE PA
700 AM EDT SUN APR 23 2017

Note: "fair" indicates few or no clouds below 12,000 feet with no
significant weather and/or obstructions to visibility.

* = STATION THAT DOES NOT REPORT PRECIPITATION /E.G. RAIN...SNOW...ETC/
    THUNDER OR FOG.

PAZ002>004-007>009-013>016-020>023-029>032-231200-
WESTERN PENNSYLVANIA

CITY           SKY/WX    TMP DP  RH WIND       PRES   REMARKS
ERIE           CLEAR     35  31  85 SW5       30.12R
MEADVILLE      CLEAR     35  33  92 CALM      30.10R
FRANKLIN*      CLEAR     32  27  80 NE3       30.12R
NEW CASTLE     FAIR      30  30 100 CALM      30.13R
BEAVER COUNTY  NOT AVBL
BUTLER*        CLEAR     36  32  87 E5        30.12R
PITTSBURGH INT PTCLDY    39  34  82 E3        30.10R
PITTSBURGH     CLEAR     39  32  76 E3        30.09R
INDIANA*       CLEAR     34  34 100 CALM      30.13R
LATROBE        CLEAR     34  34 100 VRB5      30.11R
WASHINGTON CO* CLEAR     32  30  93 CALM      30.11R
$$

PAZ004>006-010>012-017>019-024>028-033>037-041-042-045-046-049>053-231200-
CENTRAL PENNSYLVANIA

CITY           SKY/WX    TMP DP  RH WIND       PRES   REMARKS
BRADFORD       CLEAR     29  28  96 CALM      30.09R
DUBOIS         CLEAR     35  30  82 E6        30.09R
CLEARFIELD     CLEAR     32  30  92 CALM      30.12R
JOHNSTOWN      CLEAR     37  31  78 CALM      30.08R
ALTOONA        CLEAR     37  34  89 CALM      30.12R
STATE COLLEGE  CLEAR     34  32  93 CALM      30.12R
WILLIAMSPORT   CLEAR     35  33  92 N3        30.13R
SELINSGROVE    CLEAR     33  33 100 CALM      30.14R
FT INDIANTOWN  CLEAR     38  37  97 N5        30.12R
CAPITAL CITY   CLEAR     39  34  82 SW5       30.13R
HARRISBURG     PTCLDY    42  37  82 N3        30.12R
YORK           CLEAR     36  36 100 CALM      30.12R
$$

PAZ038>040-043-044-047-048-054-055-060>062-067>071-231200-
EASTERN PENNSYLVANIA

CITY           SKY/WX    TMP DP  RH WIND       PRES   REMARKS
SCRANTON       CLEAR     37  33  85 E6        30.10R
MOUNT POCONO   CLEAR     36  32  85 N3        30.07R
ALLENTOWN      CLEAR     40  33  76 NW3       30.11R
QUAKERTOWN*    SUNNY     37  34  87 CALM      30.11R
READING        CLEAR     42  36  79 CALM      30.11R
LANCASTER      CLEAR     43  36  76 CALM      30.12R
COATESVILLE    CLOUDY    43  36  75 N6        30.11R
POTTSTOWN      CLEAR     38  34  85 NW3       30.12R
BLUE BELL      CLOUDY    37  37 100 CALM      30.12R
DOYLESTOWN     CLEAR     41  35  79 NE3       30.09R
WILLOW GROVE   NOT AVBL
NORTH PHILA    CLOUDY    43  36  76 N3        30.12R
PHILADELPHIA   CLOUDY    46  36  68 N7        30.11R
$$




USA.gov is the U.S. government's official web portal to all federal, state and local government web resources and services.